CW6532 Weather Reports


Display with metric or nautical units.
time (UTC)temp
F
wind
direction
speed
MPH
gust
MPH
rain 1hr
in
rain 24hr
in
rain mn
in
humidity
%
barometer
mb
20260903174349 82 250 4.0 11.0 0.00 0.00 0.00 54 1025.8
20260903173343 82 170 6.0 11.0 0.00 0.00 0.00 54 1025.9
20260903172336 82 238 4.0 8.0 0.00 0.00 0.00 55 1025.9
20260903171331 82 171 5.0 9.0 0.00 0.00 0.00 56 1025.9
20260903170343 81 183 6.0 10.0 0.00 0.00 0.00 57 1025.9
20260903165335 81 200 6.0 9.0 0.00 0.00 0.00 58 1025.9
20260903164330 81 208 6.0 10.0 0.00 0.00 0.00 58 1025.9
20260903163329 81 169 4.0 9.0 0.00 0.00 0.00 59 1025.9
20260903162349 80 173 5.0 8.0 0.00 0.00 0.00 60 1025.9
20260903161338 80 206 6.0 9.0 0.00 0.00 0.00 62 1026.0
20260903160351 79 163 4.0 8.0 0.00 0.00 0.00 61 1026.1
20260903155343 80 213 6.0 9.0 0.00 0.00 0.00 61 1026.2
20260903154336 79 225 4.0 7.0 0.00 0.00 0.00 61 1026.1
20260903153330 79 170 4.0 8.0 0.00 0.00 0.00 63 1026.1
20260903152349 79 207 3.0 7.0 0.00 0.00 0.00 63 1026.1
20260903151344 79 219 5.0 6.0 0.00 0.00 0.00 62 1026.2
20260903150334 79 211 1.0 3.0 0.00 0.00 0.00 62 1026.0
20260903145325 79 221 3.0 6.0 0.00 0.00 0.00 63 1026.1
20260903144346 78 161 3.0 4.0 0.00 0.00 0.00 64 1026.1
20260903143340 78 145 3.0 4.0 0.00 0.00 0.00 68 1026.1
20260903142334 77 155 1.0 3.0 0.00 0.00 0.00 71 1026.0
20260903141328 77 155 3.0 6.0 0.00 0.00 0.00 71 1026.1
20260903140337 77 192 2.0 4.0 0.00 0.00 0.00 71 1026.0
20260903135330 77 192 3.0 4.0 0.00 0.00 0.00 71 1025.9
20260903134352 77 192 2.0 4.0 0.00 0.00 0.00 71 1025.8
20260903133346 77 200 3.0 5.0 0.00 0.00 0.00 71 1025.8
20260903132339 76 205 3.0 4.0 0.00 0.00 0.00 71 1025.6
20260903131339 77 205 3.0 4.0 0.00 0.00 0.00 70 1025.5
20260903130331 77 195 2.0 6.0 0.00 0.00 0.00 69 1025.4
20260903125347 77 206 4.0 9.0 0.00 0.00 0.00 69 1025.3
20260903124342 77 240 6.0 9.0 0.00 0.00 0.00 69 1025.3
20260903123355 77 235 1.0 3.0 0.00 0.00 0.00 70 1025.0
20260903122328 77 235 2.0 5.0 0.00 0.00 0.00 69 1024.8
20260903121342 77 235 4.0 5.0 0.00 0.00 0.00 70 1024.8
20260903120334 77 118 1.0 4.0 0.00 0.00 0.00 68 1024.8
20260903115326 77 118 3.0 4.0 0.00 0.00 0.00 70 1024.6
20260903114407 77 122 3.0 6.0 0.00 0.00 0.00 70 1024.7
20260903113339 77 85 2.0 3.0 0.00 0.00 0.00 69 1024.7
20260903112333 77 74 2.0 3.0 0.00 0.00 0.00 69 1024.6
20260903111328 77 74 2.0 3.0 0.00 0.00 0.00 68 1024.6
20260903110337 77 74 1.0 4.0 0.00 0.00 0.00 66 1024.6
20260903105329 78 200 3.0 7.0 0.00 0.00 0.00 63 1024.6
20260903104349 77 207 5.0 7.0 0.00 0.00 0.00 66 1024.7
20260903103343 76 213 4.0 7.0 0.00 0.00 0.00 69 1024.7
20260903102402 77 217 6.0 7.0 0.00 0.00 0.00 69 1024.8
20260903101335 77 211 5.0 7.0 0.00 0.00 0.00 68 1024.9
20260903100327 77 198 5.0 8.0 0.00 0.00 0.00 66 1024.9
20260903095348 78 211 6.0 8.0 0.00 0.00 0.00 64 1024.9
20260903094346 79 202 4.0 6.0 0.00 0.00 0.00 62 1024.9
20260903093349 79 212 6.0 8.0 0.00 0.00 0.00 62 1024.8
20260903092343 79 188 6.0 8.0 0.00 0.00 0.00 62 1024.8
20260903091501 79 165 6.0 10.0 0.00 0.00 0.00 62 1024.9
20260903090407 78 184 8.0 10.0 0.00 0.00 0.00 64 1025.0
20260903085343 78 204 8.0 11.0 0.00 0.00 0.00 65 1024.9
20260903084344 78 200 9.0 11.0 0.00 0.00 0.00 65 1024.9
20260903083341 78 218 8.0 11.0 0.00 0.00 0.00 65 1024.8
20260903082336 78 199 7.0 11.0 0.00 0.00 0.00 65 1024.9
20260903081329 78 215 8.0 10.0 0.00 0.00 0.00 65 1024.9
20260903080334 78 210 7.0 10.0 0.00 0.00 0.00 64 1025.0
20260903075412 79 204 6.0 9.0 0.00 0.00 0.00 63 1025.0
20260903074345 79 202 6.0 9.0 0.00 0.00 0.00 62 1025.0
20260903073338 80 198 6.0 9.0 0.00 0.00 0.00 60 1025.0
20260903072350 80 198 5.0 8.0 0.00 0.00 0.00 59 1025.1
20260903071345 80 195 5.0 9.0 0.00 0.00 0.00 59 1025.1
20260903070354 80 175 6.0 10.0 0.00 0.00 0.00 59 1025.1
20260903065326 80 184 7.0 10.0 0.00 0.00 0.00 59 1025.0
20260903064349 80 215 5.0 9.0 0.00 0.00 0.00 60 1024.9
20260903063402 80 215 6.0 9.0 0.00 0.00 0.00 59 1025.0
20260903062334 80 184 5.0 9.0 0.00 0.00 0.00 60 1025.0
20260903061328 80 178 6.0 9.0 0.00 0.00 0.00 61 1025.0
20260903060340 80 175 6.0 7.0 0.00 0.00 0.00 60 1025.0
20260903055333 81 161 4.0 7.0 0.00 0.00 0.00 59 1025.1
20260903054329 81 188 6.0 10.0 0.00 0.00 0.00 58 1025.1
20260903053350 81 227 5.0 11.0 0.00 0.00 0.00 57 1025.3
20260903052341 82 205 9.0 15.0 0.00 0.00 0.00 54 1025.3
20260903051356 83 238 3.0 5.0 0.00 0.00 0.00 52 1025.3
20260903050343 83 212 1.0 4.0 0.00 0.00 0.00 51 1025.1
20260903045335 83 212 2.0 5.0 0.00 0.00 0.00 49 1025.1
20260903044329 83 223 5.0 7.0 0.00 0.00 0.00 50 1025.0
20260903043328 83 173 2.0 4.0 0.00 0.00 0.00 49 1025.1
20260903042342 83 173 3.0 7.0 0.00 0.00 0.00 50 1024.9
20260903041337 83 213 4.0 5.0 0.00 0.00 0.00 51 1024.9
20260903040328 83 175 4.0 7.0 0.00 0.00 0.00 52 1024.8
20260903035341 82 182 4.0 6.0 0.00 0.00 0.00 52 1024.8
20260903034335 83 171 4.0 8.0 0.00 0.00 0.00 51 1024.8
20260903033350 83 190 6.0 8.0 0.00 0.00 0.00 52 1024.8
20260903032341 83 189 7.0 9.0 0.00 0.00 0.00 50 1024.7
20260903031336 83 176 7.0 10.0 0.00 0.00 0.00 50 1024.5
20260903030326 83 192 4.0 6.0 0.00 0.00 0.00 48 1024.5
20260903025405 84 186 3.0 5.0 0.00 0.00 0.00 47 1024.2
20260903024339 84 186 3.0 5.0 0.00 0.00 0.00 47 1024.1
20260903023332 84 192 2.0 6.0 0.00 0.00 0.00 47 1024.2
20260903022343 84 212 3.0 5.0 0.00 0.00 0.00 46 1023.9
20260903021334 84 212 3.0 5.0 0.00 0.00 0.00 45 1023.8
20260903020342 85 211 4.0 5.0 0.00 0.00 0.00 44 1023.9
20260903015336 85 207 4.0 7.0 0.00 0.00 0.00 43 1023.9
20260903014351 86 237 5.0 8.0 0.00 0.00 0.00 43 1023.9
20260903013410 86 255 3.0 9.0 0.00 0.00 0.00 45 1023.5
20260903012341 87 240 4.0 12.0 0.00 0.00 0.00 45 1023.6
20260903011403 88 259 4.0 10.0 0.00 0.00 0.00 43 1023.5
20260903010349 87 275 5.0 10.0 0.00 0.00 0.00 43 1023.5
20260903005339 88 144 7.0 10.0 0.00 0.00 0.00 43 1023.4
20260903004354 88 175 7.0 11.0 0.00 0.00 0.00 43 1023.5
20260903003348 87 170 8.0 11.0 0.00 0.00 0.00 43 1023.5
20260903002339 88 202 8.0 12.0 0.00 0.00 0.00 41 1023.4
20260903001335 88 216 7.0 10.0 0.00 0.00 0.00 41 1023.6
20260903000326 88 196 6.0 10.0 0.00 0.00 0.00 42 1023.6
20260902235340 87 183 6.0 13.0 0.00 0.00 0.00 43 1023.6
20260902234334 88 205 6.0 10.0 0.00 0.00 0.00 43 1023.5
20260902233332 88 225 6.0 11.0 0.00 0.00 0.00 42 1023.6
20260902232326 88 214 7.0 12.0 0.00 0.00 0.00 42 1023.6
20260902231326 88 209 7.0 13.0 0.00 0.00 0.00 43 1023.9
20260902230337 87 217 7.0 12.0 0.00 0.00 0.00 45 1023.9
20260902225335 87 186 7.0 12.0 0.00 0.00 0.00 48 1024.1
20260902224331 86 151 6.0 11.0 0.00 0.00 0.00 50 1024.2
20260902223410 86 205 9.0 15.0 0.00 0.00 0.00 49 1024.3
20260902222358 84 228 9.0 11.0 0.00 0.00 0.00 52 1024.5
20260902221330 84 160 7.0 9.0 0.00 0.00 0.00 52 1024.4
20260902220341 85 177 7.0 15.0 0.00 0.00 0.00 49 1024.6
20260902215334 86 240 8.0 12.0 0.00 0.00 0.00 48 1024.7
20260902214330 88 241 13.0 19.0 0.00 0.00 0.00 45 1024.7
20260902213344 88 263 6.0 13.0 0.00 0.00 0.00 43 1024.6
20260902212336 88 262 6.0 13.0 0.00 0.00 0.00 43 1024.6
20260902211327 88 255 7.0 12.0 0.00 0.00 0.00 42 1024.8
20260902210337 88 309 4.0 12.0 0.00 0.00 0.00 42 1024.9
20260902205326 89 300 8.0 11.0 0.00 0.00 0.00 41 1024.9
20260902204335 89 288 6.0 11.0 0.00 0.00 0.00 40 1024.9
20260902203344 91 337 4.0 10.0 0.00 0.00 0.00 36 1025.1
20260902202348 92 263 2.0 10.0 0.00 0.00 0.00 34 1025.0
20260902201338 92 249 7.0 11.0 0.00 0.00 0.00 36 1025.0
20260902200348 92 345 4.0 11.0 0.00 0.00 0.00 37 1025.2
20260902195339 91 314 7.0 13.0 0.00 0.00 0.00 38 1025.5
20260902194335 93 229 5.0 11.0 0.00 0.00 0.00 37 1025.5
20260902193329 92 290 5.0 13.0 0.00 0.00 0.00 38 1025.6
20260902192345 91 291 7.0 13.0 0.00 0.00 0.00 41 1025.8
20260902191339 91 289 6.0 11.0 0.00 0.00 0.00 41 1026.0
20260902190415 90 311 3.0 12.0 0.00 0.00 0.00 42 1026.3
20260902185326 91 244 5.0 9.0 0.00 0.00 0.00 41 1026.5
20260902184343 91 350 6.0 12.0 0.00 0.00 0.00 40 1026.5
20260902183333 90 257 3.0 13.0 0.00 0.00 0.00 42 1026.7
20260902182350 89 25 2.0 10.0 0.00 0.00 0.00 42 1026.7
20260902181338 89 322 2.0 10.0 0.00 0.00 0.00 44 1026.9
20260902180345 90 338 4.0 10.0 0.00 0.00 0.00 43 1027.0
20260902175358 89 251 4.0 8.0 0.00 0.00 0.00 45 1027.1